KQ6QV Weather Reports


Display with metric or nautical units.
time (UTC)temp
F
wind
direction
speed
MPH
gust
MPH
rain 1hr
in
rain 24hr
in
rain mn
in
humidity
%
barometer
mb
20190425054634 63 236 4.0 5.0 0.00 0.00 0.00 52 1014.4
20190425053128 64 235 3.0 4.0 0.00 0.00 0.00 51 1014.4
20190425051853 64 236 0.0 0.0 0.00 0.00 0.00 50 1014.4
20190425050220 65 236 2.0 4.0 0.00 0.00 0.00 50 1014.4
20190425043042 66 236 1.0 4.0 0.00 0.00 0.00 46 1014.4
20190425041847 67 237 0.0 0.0 0.00 0.00 0.00 45 1014.4
20190425040227 68 0.0 0.0 0.00 0.00 0.00 42 1014.3
20190425034542 69 237 0.0 0.0 0.00 0.00 0.00 39 1013.4
20190425030208 73 236 2.0 5.0 0.00 0.00 0.00 32 1013.4
20190425021815 76 235 0.0 3.0 0.00 0.00 0.00 24 1013.4
20190425020131 77 236 1.0 4.0 0.00 0.00 0.00 23 1013.4
20190425010322 81 236 1.0 8.0 0.00 0.00 0.00 20 1013.4
20190425004858 82 235 2.0 6.0 0.00 0.00 0.00 17 1013.4
20190425003254 83 240 2.0 8.0 0.00 0.00 0.00 15 1013.4
20190425001558 83 235 3.0 7.0 0.00 0.00 0.00 14 1013.4
20190424234706 84 232 2.0 5.0 0.00 0.00 0.00 11 1013.4
20190424231618 85 235 3.0 8.0 0.00 0.00 0.00 10 1013.4
20190424230236 86 231 2.0 7.0 0.00 0.00 0.00 11 1013.4
20190424223323 86 238 3.0 7.0 0.00 0.00 0.00 11 1014.4
20190424221739 86 231 3.0 7.0 0.00 0.00 0.00 11 1014.4
20190424213328 89 238 2.0 6.0 0.00 0.00 0.00 10 1014.4
20190424211646 89 239 2.0 4.0 0.00 0.00 0.00 10 1014.4
20190424204727 89 243 1.0 4.0 0.00 0.00 0.00 10 1014.4
20190424203348 88 235 2.0 7.0 0.00 0.00 0.00 10 1014.4
20190424201721 89 235 2.0 6.0 0.00 0.00 0.00 10 1014.4
20190424184754 84 234 3.0 5.0 0.00 0.00 0.00 15 1015.5
20190424183310 82 235 2.0 4.0 0.00 0.00 0.00 20 1015.5
20190424181847 80 230 2.0 5.0 0.00 0.00 0.00 21 1015.5
20190424180217 79 233 2.0 4.0 0.00 0.00 0.00 24 1015.5
20190424174701 77 237 2.0 4.0 0.00 0.00 0.00 26 1015.5
20190424171802 74 240 1.0 4.0 0.00 0.00 0.00 32 1015.5
20190424164740 71 0.0 0.0 0.00 0.00 0.00 36 1015.5
20190424163327 70 0.0 0.0 0.00 0.00 0.00 38 1015.5
20190424161606 69 0.0 0.0 0.00 0.00 0.00 41 1015.5
20190424160033 68 0.0 0.0 0.00 0.00 0.00 46 1015.5
20190424154645 67 0.0 0.0 0.00 0.00 0.00 52 1015.5
20190424144600 62 0.0 0.0 0.00 0.00 0.00 56 1015.5
20190424143331 60 0.0 0.0 0.00 0.00 0.00 55 1015.5
20190424140159 59 237 2.0 4.0 0.00 0.00 0.00 52 1015.4
20190424133320 59 236 1.0 4.0 0.00 0.00 0.00 50 1014.4
20190424131624 59 239 2.0 4.0 0.00 0.00 0.00 48 1014.4
20190424124549 60 240 1.0 4.0 0.00 0.00 0.00 46 1014.4
20190424114848 61 236 1.0 0.0 0.00 0.00 0.00 39 1014.4
20190424113301 62 236 2.0 5.0 0.00 0.00 0.00 38 1014.4
20190424111818 62 236 3.0 6.0 0.00 0.00 0.00 35 1014.4
20190424110206 63 236 4.0 5.0 0.00 0.00 0.00 34 1014.4
20190424094628 65 271 1.0 5.0 0.00 0.00 0.00 27 1014.4
20190424090143 67 244 4.0 6.0 0.00 0.00 0.00 24 1014.4
20190424080242 67 252 4.0 6.0 0.00 0.00 0.00 24 1014.4
20190424074747 68 259 4.0 5.0 0.00 0.00 0.00 23 1014.4
20190424071809 69 243 5.0 8.0 0.00 0.00 0.00 23 1014.4
20190424064632 69 240 5.0 7.0 0.00 0.00 0.00 24 1014.5
20190424063335 69 244 6.0 9.0 0.00 0.00 0.00 24 1015.5
20190424061655 69 244 6.0 7.0 0.00 0.00 0.00 25 1015.5